Location: Moscow
(55.7500°N, 37.5830°E)
Time: 22:21:26
(UTC+03:00)

Vanguard 2 - Pass Details

Date: 04 December 2021
Orbit: 553 x 2936 km, 32.9° (Epoch: 15 January)

Event Time Altitude Azimuth Distance (km) Brightness Sun altitude
Rises 17:08:08 0° 232° (SW) 3,659 13.0 -8.8°
Reaches altitude 10° 17:14:01 10° 192° (SSW) 3,320 11.3 -9.6°
Maximum altitude 17:14:59 10° 185° (S) 3,404 11.3 -9.7°
Drops below altitude 10° 17:16:00 10° 178° (S) 3,527 11.2 -9.8°
Sets 17:24:20 0° 143° (SE) 5,341 11.7 -10.9°
